Location: Domachevo
(51.7500°N, 23.6000°E)
Time: 03:15:35
(UTC+03:00)

Envisat - Visible Passes

Search period start: 26 April 2017 00:00
Search period end: 06 May 2017 00:00
Orbit: 764 x 766 km, 98.2° (Epoch: 24 April)

Date Brightness Start Highest point End Pass type
(mag) Time Alt. Az. Time Alt. Az. Time Alt. Az.
26 Apr 3.1 21:13:59 10° SSE 21:19:04 88° ENE 21:24:12 10° NNW visible
26 Apr 5.5 22:55:48 10° WSW 22:58:49 16° W 23:01:51 10° NW visible
27 Apr 4.7 22:17:14 10° SSW 22:21:41 30° W 22:26:09 10° NNW visible
28 Apr 3.6 21:39:45 10° S 21:44:45 58° W 21:49:48 10° NNW visible
29 Apr 5.4 22:44:01 10° SW 22:47:36 19° W 22:51:12 10° NW visible
30 Apr 4.4 22:05:51 10° SSW 22:10:31 36° W 22:15:14 10° NNW visible
01 May 3.3 21:28:35 10° S 21:33:39 71° WSW 21:38:45 10° NNW visible
01 May 5.7 23:11:53 10° WSW 23:13:37 12° W 23:15:21 10° WNW visible
02 May 5.1 22:32:24 10° SW 22:36:23 23° W 22:40:25 10° NW visible
03 May 4.1 21:54:32 10° S 21:59:23 44° W 22:04:16 10° NNW visible
04 May 5.6 22:59:39 10° WSW 23:02:22 14° W 23:05:07 10° NW visible
05 May 4.9 22:20:53 10° SSW 22:25:13 28° W 22:29:34 10° NW visible
